Location: Ku?niki
(51.4449°N, 17.8974°E)
Time: 03:39:42
(UTC+00:00)

ATLAS 2AS CENTAUR R/B - Pass Details

Date: 18 September 2020
Orbit: 939 x 1273 km, 63.7° (Epoch: 19 October)

Event Time Altitude Azimuth Distance (km) Brightness Sun altitude
Rises 19:14:02 0° 187° (S) 4,191 5.6 -21.3°
Enters shadow 19:16:57 10° 180° (S) 3,269 4.9 -21.7°
Exits shadow 19:24:45 37° 106° (ESE) 1,881 3.5 -22.7°
Drops below altitude 10° 19:31:09 10° 53° (NE) 3,238 5.0 -23.5°
Sets 19:34:07 0° 45° (NE) 4,181 5.7 -23.9°
